IZ1BLA-10 Weather Reports


time (UTC)temp
F
wind
direction
speed
knots
gust
knots
rain 1hr
in
rain 24hr
in
rain mn
in
humidity
%
barometer
mb
20260507111920 65 0.0 0.0 0.00 0.00 0.00 54 1012.1
20260507110920 64 0.0 0.0 0.00 0.00 0.00 54 1012.2
20260507105919 63 0.0 0.0 0.00 0.00 0.00 57 1012.5
20260507104920 62 0.0 0.0 0.00 0.00 0.00 59 1012.9
20260507103919 63 0.0 0.0 0.00 0.00 0.00 56 1012.6
20260507102920 64 0.0 0.0 0.00 0.00 0.00 55 1012.6
20260507101919 64 0.0 0.0 0.00 0.00 0.00 55 1012.6
20260507100920 62 0.0 0.0 0.00 0.00 0.00 59 1012.9
20260507095920 61 0.0 0.0 0.00 0.00 0.00 60 1013.1
20260507094919 62 0.0 0.0 0.00 0.00 0.00 60 1012.9
20260507093919 61 0.0 0.0 0.00 0.00 0.00 61 1012.8
20260507092920 60 0.0 0.0 0.00 0.00 0.00 62 1013.0
20260507091919 63 0.0 0.0 0.00 0.00 0.00 57 1012.5
20260507090919 61 0.0 0.0 0.00 0.00 0.00 61 1012.6
20260507085920 61 0.0 0.0 0.00 0.00 0.00 59 1012.7
20260507084920 61 0.0 0.0 0.00 0.00 0.00 58 1012.5
20260507083920 60 0.0 0.0 0.00 0.00 0.00 59 1012.6
20260507082919 60 0.0 0.0 0.00 0.00 0.00 61 1012.5
20260507081920 60 0.0 0.0 0.00 0.00 0.00 60 1012.6
20260507080920 60 0.0 0.0 0.00 0.00 0.00 61 1012.6
20260507075920 59 0.0 0.0 0.00 0.00 0.00 62 1012.7
20260507074920 61 0.0 0.0 0.00 0.00 0.00 58 1012.4
20260507073920 60 0.0 0.0 0.00 0.00 0.00 57 1012.5
20260507072920 58 0.0 0.0 0.00 0.00 0.00 62 1012.9
20260507071920 58 0.0 0.0 0.00 0.00 0.00 60 1012.7
20260507070920 57 0.0 0.0 0.00 0.00 0.00 58 1013.1
20260507065920 56 0.0 0.0 0.00 0.00 0.00 57 1013.1
20260507064920 56 0.0 0.0 0.00 0.00 0.00 54 1013.2
20260507063920 54 0.0 0.0 0.00 0.00 0.00 53 1013.2
20260507062920 55 0.0 0.0 0.00 0.00 0.00 52 1013.2
20260507061920 53 0.0 0.0 0.00 0.00 0.00 56 1013.4
20260507060920 53 0.0 0.0 0.00 0.00 0.00 55 1013.4
20260507055920 52 0.0 0.0 0.00 0.00 0.00 59 1013.6
20260507054919 53 0.0 0.0 0.00 0.00 0.00 55 1013.1
20260507053919 51 0.0 0.0 0.00 0.00 0.00 60 1013.3
20260507052919 51 0.0 0.0 0.00 0.00 0.00 59 1013.3
20260507051919 52 0.0 0.0 0.00 0.00 0.00 58 1012.9
20260507050919 52 0.0 0.0 0.00 0.00 0.00 62 1012.7
20260507045919 50 0.0 0.0 0.00 0.00 0.00 63 1012.8
20260507044919 50 0.0 0.0 0.00 0.00 0.00 64 1012.9
20260507043919 52 0.0 0.0 0.00 0.00 0.00 61 1012.5
20260507042919 53 0.0 0.0 0.00 0.00 0.00 60 1012.2
20260507041919 53 0.0 0.0 0.00 0.00 0.00 60 1012.2
20260507040919 53 0.0 0.0 0.00 0.00 0.00 59 1012.0
20260507035919 53 0.0 0.0 0.00 0.00 0.00 60 1012.0
20260507034919 53 0.0 0.0 0.00 0.00 0.00 62 1012.0
20260507033919 52 0.0 0.0 0.00 0.00 0.00 65 1012.3
20260507032919 52 0.0 0.0 0.00 0.00 0.00 64 1012.3
20260507031919 50 0.0 0.0 0.00 0.00 0.00 69 1012.6
20260507030919 50 0.0 0.0 0.00 0.00 0.00 69 1012.5
20260507025919 51 0.0 0.0 0.00 0.00 0.00 66 1012.2
20260507024919 52 0.0 0.0 0.00 0.00 0.00 64 1012.0
20260507023919 54 0.0 0.0 0.00 0.00 0.00 62 1011.6
20260507022919 54 0.0 0.0 0.00 0.00 0.00 63 1011.6
20260507021918 55 0.0 0.0 0.00 0.00 0.00 60 1011.3
20260507020918 53 0.0 0.0 0.00 0.00 0.00 63 1011.6
20260507015919 55 0.0 0.0 0.00 0.00 0.00 61 1011.2
20260507014918 57 0.0 0.0 0.00 0.00 0.00 60 1011.0
20260507013919 56 0.0 0.0 0.00 0.00 0.00 62 1011.1
20260507011919 58 0.0 0.0 0.00 0.00 0.00 65 1010.8
20260507010918 61 0.0 0.0 0.00 0.00 0.00 64 1010.3
20260507005918 61 0.0 0.0 0.00 0.00 0.00 67 1010.2
20260507004918 61 0.0 0.0 0.00 0.00 0.00 67 1010.3
20260507003919 61 0.0 0.0 0.00 0.00 0.00 69 1010.4
20260507002919 60 0.0 0.0 0.00 0.00 0.00 70 1010.5
20260507001919 61 0.0 0.0 0.00 0.00 0.00 67 1010.3
20260507000919 61 0.0 0.0 0.00 0.00 0.00 68 1010.3
20260506235919 62 0.0 0.0 0.00 0.00 0.00 66 1010.2
20260506234918 62 0.0 0.0 0.00 0.00 0.00 66 1010.1
20260506233919 62 0.0 0.0 0.00 0.00 0.00 67 1010.1
20260506232919 62 0.0 0.0 0.00 0.00 0.00 66 1010.1
20260506231918 61 0.0 0.0 0.00 0.00 0.00 68 1010.1
20260506230919 61 0.0 0.0 0.00 0.00 0.00 68 1010.1
20260506225918 62 0.0 0.0 0.00 0.00 0.00 67 1009.8
20260506224918 62 0.0 0.0 0.00 0.00 0.00 67 1009.7
20260506223918 63 0.0 0.0 0.00 0.00 0.00 66 1009.6
20260506222918 63 0.0 0.0 0.00 0.00 0.00 65 1009.5
20260506221918 62 0.0 0.0 0.00 0.00 0.00 67 1009.8
20260506220918 62 0.0 0.0 0.00 0.00 0.00 64 1009.5
20260506215918 63 0.0 0.0 0.00 0.00 0.00 63 1009.5
20260506214919 63 0.0 0.0 0.00 0.00 0.00 62 1009.3
20260506213919 63 0.0 0.0 0.00 0.00 0.00 62 1009.1
20260506212919 64 0.0 0.0 0.00 0.00 0.00 59 1008.8
20260506211918 64 0.0 0.0 0.00 0.00 0.00 62 1008.9
20260506210919 63 0.0 0.0 0.00 0.00 0.00 61 1008.7
20260506205918 66 0.0 0.0 0.00 0.00 0.00 57 1008.4
20260506204918 68 0.0 0.0 0.00 0.00 0.00 54 1008.2
20260506203918 65 0.0 0.0 0.00 0.00 0.00 58 1008.3
20260506202918 66 0.0 0.0 0.00 0.00 0.00 57 1008.2
20260506201919 65 0.0 0.0 0.00 0.00 0.00 57 1008.1
20260506200919 66 0.0 0.0 0.00 0.00 0.00 56 1007.9
20260506195918 65 0.0 0.0 0.00 0.00 0.00 58 1007.6
20260506194918 66 0.0 0.0 0.00 0.00 0.00 55 1007.2
20260506193919 65 0.0 0.0 0.00 0.00 0.00 56 1007.0
20260506192918 65 0.0 0.0 0.00 0.00 0.00 56 1006.9
20260506191918 67 0.0 0.0 0.00 0.00 0.00 55 1006.4
20260506190918 66 0.0 0.0 0.00 0.00 0.00 56 1006.3
20260506185918 65 0.0 0.0 0.00 0.00 0.00 59 1006.4
20260506184918 67 0.0 0.0 0.00 0.00 0.00 54 1005.8
20260506183919 68 0.0 0.0 0.00 0.00 0.00 53 1005.5
20260506182918 67 0.0 0.0 0.00 0.00 0.00 55 1005.5
20260506181918 67 0.0 0.0 0.00 0.00 0.00 55 1005.1
20260506180918 67 0.0 0.0 0.00 0.00 0.00 55 1004.9
20260506175920 66 0.0 0.0 0.00 0.00 0.00 56 1004.8
20260506174918 69 0.0 0.0 0.00 0.00 0.00 52 1004.3
20260506173918 67 0.0 0.0 0.00 0.00 0.00 54 1004.3
20260506172919 68 0.0 0.0 0.00 0.00 0.00 54 1004.1
20260506171918 68 0.0 0.0 0.00 0.00 0.00 53 1004.0
20260506170918 68 0.0 0.0 0.00 0.00 0.00 52 1003.9
20260506165918 68 0.0 0.0 0.00 0.00 0.00 52 1003.9
20260506164918 68 0.0 0.0 0.00 0.00 0.00 52 1004.0
20260506163918 70 0.0 0.0 0.00 0.00 0.00 49 1003.7
20260506162918 70 0.0 0.0 0.00 0.00 0.00 49 1003.5
20260506161918 69 0.0 0.0 0.00 0.00 0.00 49 1003.6
20260506160918 68 0.0 0.0 0.00 0.00 0.00 51 1003.7
20260506155918 69 0.0 0.0 0.00 0.00 0.00 51 1003.6
20260506154917 69 0.0 0.0 0.00 0.00 0.00 51 1003.4
20260506153918 70 0.0 0.0 0.00 0.00 0.00 53 1003.6
20260506152918 67 0.0 0.0 0.00 0.00 0.00 57 1003.8
20260506151918 67 0.0 0.0 0.00 0.00 0.00 56 1003.7
20260506150918 67 0.0 0.0 0.00 0.00 0.00 57 1003.8
20260506145918 67 0.0 0.0 0.00 0.00 0.00 57 1003.8
20260506144918 67 0.0 0.0 0.00 0.00 0.00 57 1003.9
20260506143917 68 0.0 0.0 0.00 0.00 0.00 55 1003.6
20260506142918 68 0.0 0.0 0.00 0.00 0.00 53 1003.5
20260506141918 69 0.0 0.0 0.00 0.00 0.00 53 1003.4
20260506140918 70 0.0 0.0 0.00 0.00 0.00 48 1003.3
20260506135918 72 0.0 0.0 0.00 0.00 0.00 41 1003.1
20260506134918 71 0.0 0.0 0.00 0.00 0.00 45 1003.3
20260506133918 70 0.0 0.0 0.00 0.00 0.00 46 1003.4
20260506132918 71 0.0 0.0 0.00 0.00 0.00 47 1003.5
20260506131917 69 0.0 0.0 0.00 0.00 0.00 48 1003.7
20260506130917 69 0.0 0.0 0.00 0.00 0.00 47 1003.6
20260506125918 71 0.0 0.0 0.00 0.00 0.00 42 1003.4
20260506124917 71 0.0 0.0 0.00 0.00 0.00 43 1003.4
20260506123917 72 0.0 0.0 0.00 0.00 0.00 44 1003.4
20260506122917 70 0.0 0.0 0.00 0.00 0.00 44 1003.7
20260506121917 71 0.0 0.0 0.00 0.00 0.00 46 1003.4
20260506120918 71 0.0 0.0 0.00 0.00 0.00 44 1003.5
20260506115918 69 0.0 0.0 0.00 0.00 0.00 48 1003.8
20260506114918 68 0.0 0.0 0.00 0.00 0.00 50 1004.0
20260506113917 69 0.0 0.0 0.00 0.00 0.00 50 1004.0
20260506112917 68 0.0 0.0 0.00 0.00 0.00 50 1004.1